Location: *
(46.1833°N, 22.7667°E)
Time: 03:40:48
(UTC+00:00)

Cosmos 614 Rocket - Pass Details

Date: 17 September 2019
Orbit: 733 x 764 km, 74.1° (Epoch: 18 October)

Event Time Altitude Azimuth Distance (km) Brightness Sun altitude
Rises 18:52:48 0° 335° (NNW) 3,238 8.1 -23.1°
Reaches altitude 10° 18:55:12 10° 332° (NNW) 2,306 7.3 -23.5°
Maximum altitude 19:00:20 60° 253° (WSW) 871 4.4 -24.2°
Enters shadow 19:02:02 39° 194° (SSW) 1,119 4.6 -24.5°
